EW5035 Weather Reports


Display with metric or nautical units.
time (UTC)temp
F
wind
direction
speed
MPH
gust
MPH
rain 1hr
in
rain 24hr
in
rain mn
in
humidity
%
barometer
mb
20260509023536 69 273 5.0 16.0 0.00 0.00 0.00 19 1015.2
20260509023050 70 277 6.0 18.0 0.00 0.00 0.00 19 1015.2
20260509022535 70 288 8.0 19.0 0.00 0.00 0.00 19 1015.1
20260509022035 71 284 10.0 19.0 0.00 0.00 0.00 19 1015.1
20260509021547 71 252 9.0 14.0 0.00 0.00 0.00 21 1015.1
20260509021037 72 233 4.0 13.0 0.00 0.00 0.00 21 1015.0
20260509020534 72 233 6.0 13.0 0.00 0.00 0.00 22 1014.9
20260509020049 73 222 4.0 18.0 0.00 0.00 0.00 23 1014.9
20260509015536 72 222 10.0 21.0 0.00 0.00 0.00 24 1014.8
20260509015037 72 218 9.0 22.0 0.00 0.00 0.00 27 1014.7
20260509014544 72 218 16.0 22.0 0.00 0.00 0.00 27 1014.8
20260509014038 72 213 14.0 19.0 0.00 0.00 0.00 27 1014.7
20260509013534 72 213 14.0 24.0 0.00 0.00 0.00 28 1014.6
20260509013048 72 200 13.0 28.0 0.00 0.00 0.00 27 1014.7
20260509012535 72 199 17.0 28.0 0.00 0.00 0.00 26 1014.7
20260509012035 73 196 16.0 28.0 0.00 0.00 0.00 26 1014.4
20260509011555 73 198 18.0 25.0 0.00 0.00 0.00 25 1014.4
20260509011035 73 201 14.0 24.0 0.00 0.00 0.00 25 1014.5
20260509010535 73 218 16.0 29.0 0.00 0.00 0.00 25 1014.4
20260509010047 73 219 16.0 29.0 0.00 0.00 0.00 25 1014.6
20260509005535 73 215 19.0 29.0 0.00 0.00 0.00 24 1014.6
20260509005035 74 218 17.0 27.0 0.00 0.00 0.00 25 1014.5
20260509004542 74 222 14.0 23.0 0.00 0.00 0.00 24 1014.5
20260509004035 74 205 12.0 22.0 0.00 0.00 0.00 25 1014.5
20260509003535 74 202 15.0 25.0 0.00 0.00 0.00 25 1014.5
20260509003050 74 198 13.0 25.0 0.00 0.00 0.00 25 1014.5
20260509002534 74 196 12.0 21.0 0.00 0.00 0.00 24 1014.5
20260509002034 74 209 13.0 21.0 0.00 0.00 0.00 26 1014.6
20260509001547 74 211 14.0 21.0 0.00 0.00 0.00 25 1014.7
20260509001036 74 207 12.0 24.0 0.00 0.00 0.00 25 1014.6
20260509000535 74 196 16.0 24.0 0.00 0.00 0.00 25 1014.5
20260509000047 74 192 15.0 24.0 0.00 0.00 0.00 25 1014.6
20260508235535 74 177 15.0 24.0 0.00 0.00 0.00 26 1014.5
20260508235036 74 209 12.0 28.0 0.00 0.00 0.00 26 1014.6
20260508234556 73 220 18.0 28.0 0.00 0.00 0.00 26 1014.6
20260508234036 74 195 14.0 28.0 0.00 0.00 0.00 27 1014.6
20260508233535 74 180 13.0 23.0 0.00 0.00 0.00 25 1014.6
20260508233043 74 216 14.0 25.0 0.00 0.00 0.00 26 1014.6
20260508232534 74 204 18.0 25.0 0.00 0.00 0.00 26 1014.7
20260508232035 74 190 13.0 19.0 0.00 0.00 0.00 26 1014.7
20260508231558 73 182 9.0 19.0 0.00 0.00 0.00 27 1014.8
20260508231036 73 182 14.0 26.0 0.00 0.00 0.00 27 1014.7
20260508230535 73 221 12.0 26.0 0.00 0.00 0.00 27 1014.8
20260508230048 73 221 19.0 26.0 0.00 0.00 0.00 27 1014.8
20260508225535 73 220 15.0 25.0 0.00 0.00 0.00 28 1014.8
20260508225036 73 198 11.0 22.0 0.00 0.00 0.00 27 1014.9
20260508224550 73 211 14.0 22.0 0.00 0.00 0.00 28 1015.0
20260508224040 73 186 16.0 22.0 0.00 0.00 0.00 27 1015.0
20260508223535 73 202 13.0 22.0 0.00 0.00 0.00 27 1014.9
20260508223045 72 200 13.0 22.0 0.00 0.00 0.00 27 1015.1
20260508222537 72 198 12.0 22.0 0.00 0.00 0.00 27 1015.1
20260508222035 72 198 14.0 22.0 0.00 0.00 0.00 27 1015.2
20260508221541 72 207 16.0 22.0 0.00 0.00 0.00 27 1015.2
20260508221035 72 196 13.0 21.0 0.00 0.00 0.00 28 1015.2
20260508220535 71 198 14.0 21.0 0.00 0.00 0.00 28 1015.2
20260508220114 70 181 14.0 21.0 0.00 0.00 0.00 29 1015.3
20260508215535 70 201 11.0 20.0 0.00 0.00 0.00 28 1015.4
20260508215036 70 207 14.0 22.0 0.00 0.00 0.00 28 1015.4
20260508214546 70 204 13.0 22.0 0.00 0.00 0.00 28 1015.4
20260508214037 70 200 17.0 27.0 0.00 0.00 0.00 27 1015.4
20260508213535 71 221 20.0 27.0 0.00 0.00 0.00 26 1015.4
20260508213051 71 202 13.0 19.0 0.00 0.00 0.00 28 1015.5
20260508212532 70 200 12.0 23.0 0.00 0.00 0.00 29 1015.4
20260508212034 70 218 15.0 23.0 0.00 0.00 0.00 29 1015.5
20260508211547 70 206 13.0 23.0 0.00 0.00 0.00 30 1015.4
20260508211039 69 225 17.0 23.0 0.00 0.00 0.00 29 1015.4
20260508210534 69 216 13.0 23.0 0.00 0.00 0.00 31 1015.3
20260508210042 69 209 15.0 25.0 0.00 0.00 0.00 30 1015.4
20260508205531 69 219 18.0 31.0 0.00 0.00 0.00 31 1015.3
20260508205031 70 217 16.0 31.0 0.00 0.00 0.00 30 1015.4
20260508204600 70 226 15.0 22.0 0.00 0.00 0.00 31 1015.2
20260508204034 70 216 13.0 26.0 0.00 0.00 0.00 32 1015.3
20260508203530 70 223 18.0 26.0 0.00 0.00 0.00 31 1015.4
20260508203038 70 210 12.0 21.0 0.00 0.00 0.00 32 1015.2
20260508202532 69 212 12.0 22.0 0.00 0.00 0.00 35 1015.4
20260508202030 69 205 13.0 23.0 0.00 0.00 0.00 35 1015.3
20260508201547 69 209 14.0 25.0 0.00 0.00 0.00 33 1015.4
20260508201030 69 211 14.0 25.0 0.00 0.00 0.00 33 1015.5
20260508200530 68 196 14.0 24.0 0.00 0.00 0.00 32 1015.5
20260508200046 68 198 16.0 24.0 0.00 0.00 0.00 31 1015.6
20260508195531 67 198 14.0 22.0 0.00 0.00 0.00 33 1015.6
20260508195030 67 207 13.0 22.0 0.00 0.00 0.00 36 1015.6
20260508194541 66 218 15.0 23.0 0.00 0.00 0.00 36 1015.6
20260508194033 66 205 14.0 23.0 0.00 0.00 0.00 36 1015.7
20260508193531 66 213 17.0 23.0 0.00 0.00 0.00 35 1015.8
20260508193048 67 215 13.0 22.0 0.00 0.00 0.00 35 1015.7
20260508192534 67 216 14.0 22.0 0.00 0.00 0.00 36 1015.5
20260508192034 68 211 13.0 30.0 0.00 0.00 0.00 36 1015.6
20260508191546 68 212 13.0 30.0 0.00 0.00 0.00 37 1015.6
20260508191033 67 200 14.0 22.0 0.00 0.00 0.00 36 1015.6
20260508190534 67 207 13.0 22.0 0.00 0.00 0.00 37 1015.6
20260508190103 66 190 14.0 22.0 0.00 0.00 0.00 40 1015.7
20260508185534 66 198 12.0 20.0 0.00 0.00 0.00 39 1015.6
20260508185033 66 190 12.0 23.0 0.00 0.00 0.00 43 1015.7
20260508184551 66 190 15.0 23.0 0.00 0.00 0.00 44 1015.7
20260508184031 65 189 12.0 19.0 0.00 0.00 0.00 42 1015.7
20260508183531 64 188 12.0 20.0 0.00 0.00 0.00 44 1015.8
20260508183046 65 189 14.0 20.0 0.00 0.00 0.00 44 1015.9
20260508182531 65 200 10.0 22.0 0.00 0.00 0.00 43 1015.9
20260508182030 64 197 13.0 22.0 0.00 0.00 0.00 41 1015.9
20260508181605 64 202 13.0 22.0 0.00 0.00 0.00 41 1016.0
20260508181031 64 190 14.0 22.0 0.00 0.00 0.00 38 1015.9
20260508180531 64 184 14.0 19.0 0.00 0.00 0.00 39 1015.8
20260508180048 64 182 13.0 23.0 0.00 0.00 0.00 42 1015.9
20260508175534 65 171 13.0 23.0 0.00 0.00 0.00 44 1015.8
20260508175035 64 182 14.0 19.0 0.00 0.00 0.00 44 1015.8
20260508174601 64 186 13.0 20.0 0.00 0.00 0.00 44 1015.7
20260508174033 64 188 13.0 20.0 0.00 0.00 0.00 48 1015.6
20260508173533 64 188 13.0 20.0 0.00 0.00 0.00 46 1015.6
20260508173040 64 181 13.0 23.0 0.00 0.00 0.00 48 1015.7
20260508172533 63 182 14.0 23.0 0.00 0.00 0.00 48 1015.8
20260508172030 63 180 15.0 22.0 0.00 0.00 0.00 49 1015.7
20260508171544 62 173 14.0 22.0 0.00 0.00 0.00 51 1015.7
20260508171038 62 179 14.0 22.0 0.00 0.00 0.00 51 1015.7
20260508170534 62 183 14.0 22.0 0.00 0.00 0.00 50 1015.6
20260508170041 62 178 13.0 22.0 0.00 0.00 0.00 49 1015.7
20260508165533 62 187 13.0 20.0 0.00 0.00 0.00 50 1015.5
20260508165034 62 187 12.0 20.0 0.00 0.00 0.00 52 1015.5
20260508164542 61 188 14.0 22.0 0.00 0.00 0.00 52 1015.5
20260508164031 60 182 16.0 22.0 0.00 0.00 0.00 52 1015.5
20260508163531 60 186 13.0 19.0 0.00 0.00 0.00 52 1015.5
20260508163041 60 188 13.0 22.0 0.00 0.00 0.00 53 1015.4
20260508162534 59 184 14.0 22.0 0.00 0.00 0.00 53 1015.5
20260508162033 60 188 12.0 19.0 0.00 0.00 0.00 53 1015.4
20260508161546 60 191 14.0 19.0 0.00 0.00 0.00 52 1015.4
20260508161030 60 185 12.0 17.0 0.00 0.00 0.00 53 1015.5
20260508160533 59 186 11.0 20.0 0.00 0.00 0.00 54 1015.5
20260508160038 59 185 12.0 21.0 0.00 0.00 0.00 54 1015.4
20260508155534 59 181 12.0 26.0 0.00 0.00 0.00 53 1015.5
20260508155036 59 182 15.0 26.0 0.00 0.00 0.00 52 1015.5
20260508154540 59 178 15.0 23.0 0.00 0.00 0.00 52 1015.5
20260508154033 59 184 15.0 22.0 0.00 0.00 0.00 52 1015.4
20260508153533 59 175 12.0 26.0 0.00 0.00 0.00 53 1015.4
20260508153047 59 176 14.0 26.0 0.00 0.00 0.00 53 1015.4
20260508152531 59 168 16.0 24.0 0.00 0.00 0.00 53 1015.4
20260508152034 59 182 13.0 25.0 0.00 0.00 0.00 53 1015.3
20260508151548 58 182 16.0 25.0 0.00 0.00 0.00 52 1015.3
20260508151031 58 176 13.0 21.0 0.00 0.00 0.00 54 1015.2
20260508150531 58 171 13.0 21.0 0.00 0.00 0.00 54 1015.3
20260508150046 58 173 15.0 20.0 0.00 0.00 0.00 52 1015.4
20260508145534 58 165 13.0 20.0 0.00 0.00 0.00 52 1015.3
20260508145034 58 175 10.0 16.0 0.00 0.00 0.00 53 1015.2
20260508144542 57 175 10.0 16.0 0.00 0.00 0.00 52 1015.2
20260508144035 57 175 11.0 16.0 0.00 0.00 0.00 52 1015.2
20260508143534 56 196 5.0 13.0 0.00 0.00 0.00 51 1015.1
20260508143040 56 196 8.0 14.0 0.00 0.00 0.00 51 1015.1
20260508142533 55 196 7.0 14.0 0.00 0.00 0.00 50 1015.0
20260508142034 55 196 6.0 12.0 0.00 0.00 0.00 49 1015.0
20260508141556 54 196 6.0 12.0 0.00 0.00 0.00 48 1014.9
20260508141035 54 196 7.0 13.0 0.00 0.00 0.00 48 1014.8
20260508140534 54 196 8.0 15.0 0.00 0.00 0.00 47 1014.8
20260508140048 54 196 10.0 15.0 0.00 0.00 0.00 47 1014.8
20260508135536 54 215 8.0 13.0 0.00 0.00 0.00 47 1014.7
20260508135035 53 216 6.0 10.0 0.00 0.00 0.00 46 1014.8
20260508134556 53 216 5.0 10.0 0.00 0.00 0.00 46 1014.7
20260508134034 53 216 3.0 9.0 0.00 0.00 0.00 45 1014.6
20260508133531 53 216 5.0 14.0 0.00 0.00 0.00 45 1014.7
20260508133043 53 216 4.0 14.0 0.00 0.00 0.00 45 1014.7
20260508132537 53 216 8.0 13.0 0.00 0.00 0.00 44 1014.5
20260508132034 53 216 7.0 12.0 0.00 0.00 0.00 44 1014.6
20260508131548 53 216 6.0 12.0 0.00 0.00 0.00 44 1014.5
20260508131034 54 216 6.0 14.0 0.00 0.00 0.00 44 1014.5
20260508130535 54 216 9.0 14.0 0.00 0.00 0.00 44 1014.6
20260508130047 53 217 5.0 9.0 0.00 0.00 0.00 44 1014.4
20260508125534 53 217 4.0 11.0 0.00 0.00 0.00 44 1014.5
20260508125035 53 217 6.0 12.0 0.00 0.00 0.00 44 1014.5
20260508124548 54 217 7.0 12.0 0.00 0.00 0.00 44 1014.5
20260508124034 54 217 3.0 10.0 0.00 0.00 0.00 44 1014.4
20260508123534 54 217 5.0 10.0 0.00 0.00 0.00 44 1014.4
20260508123104 54 217 4.0 9.0 0.00 0.00 0.00 44 1014.4
20260508122534 54 217 4.0 12.0 0.00 0.00 0.00 44 1014.4
20260508122034 54 217 3.0 12.0 0.00 0.00 0.00 44 1014.4
20260508121546 54 217 6.0 14.0 0.00 0.00 0.00 44 1014.4
20260508121034 54 217 6.0 16.0 0.00 0.00 0.00 44 1014.6
20260508120534 54 218 8.0 16.0 0.00 0.00 0.00 44 1014.5
20260508120047 54 218 8.0 15.0 0.00 0.00 0.00 44 1014.5
20260508115534 54 224 7.0 15.0 0.00 0.00 0.00 43 1014.5
20260508115033 55 227 4.0 13.0 0.00 0.00 0.00 43 1014.5
20260508114551 55 227 5.0 13.0 0.00 0.00 0.00 42 1014.4
20260508114030 55 227 5.0 12.0 0.00 0.00 0.00 41 1014.4
20260508113535 55 227 5.0 12.0 0.00 0.00 0.00 41 1014.5
20260508113103 55 227 6.0 13.0 0.00 0.00 0.00 41 1014.4
20260508112535 55 227 6.0 14.0 0.00 0.00 0.00 40 1014.3
20260508112037 55 227 9.0 14.0 0.00 0.00 0.00 40 1014.3
20260508111547 55 227 5.0 13.0 0.00 0.00 0.00 40 1014.4
20260508111034 55 227 5.0 10.0 0.00 0.00 0.00 40 1014.3
20260508110534 55 227 6.0 12.0 0.00 0.00 0.00 40 1014.3
20260508110045 55 227 4.0 13.0 0.00 0.00 0.00 38 1014.3
20260508105534 55 227 5.0 13.0 0.00 0.00 0.00 39 1014.3
20260508105033 55 227 2.0 11.0 0.00 0.00 0.00 40 1014.2
20260508104542 55 227 5.0 12.0 0.00 0.00 0.00 40 1014.2
20260508104036 55 227 7.0 13.0 0.00 0.00 0.00 40 1014.2
20260508103534 55 227 7.0 14.0 0.00 0.00 0.00 40 1014.2
20260508103041 55 227 6.0 14.0 0.00 0.00 0.00 40 1014.2
20260508102533 55 227 4.0 14.0 0.00 0.00 0.00 39 1014.2
20260508102038 54 227 1.0 9.0 0.00 0.00 0.00 39 1014.2
20260508101541 54 227 3.0 10.0 0.00 0.00 0.00 39 1014.1
20260508101035 54 227 5.0 12.0 0.00 0.00 0.00 39 1014.1
20260508100534 54 227 6.0 12.0 0.00 0.00 0.00 39 1014.2
20260508100048 54 227 6.0 9.0 0.00 0.00 0.00 39 1014.3
20260508095534 54 227 4.0 10.0 0.00 0.00 0.00 41 1014.1
20260508095034 55 227 6.0 12.0 0.00 0.00 0.00 39 1014.2
20260508094606 55 227 6.0 12.0 0.00 0.00 0.00 39 1014.0
20260508094037 55 227 6.0 10.0 0.00 0.00 0.00 39 1014.0
20260508093534 55 227 7.0 10.0 0.00 0.00 0.00 40 1014.0
20260508093043 55 227 6.0 9.0 0.00 0.00 0.00 40 1014.1
20260508092533 55 227 5.0 9.0 0.00 0.00 0.00 39 1014.1
20260508092033 55 227 6.0 8.0 0.00 0.00 0.00 40 1014.0
20260508091542 55 227 5.0 9.0 0.00 0.00 0.00 41 1014.0
20260508091035 55 227 5.0 9.0 0.00 0.00 0.00 41 1014.0
20260508090531 55 227 5.0 9.0 0.00 0.00 0.00 42 1014.0
20260508090049 55 227 5.0 9.0 0.00 0.00 0.00 43 1014.1
20260508085533 55 227 5.0 9.0 0.00 0.00 0.00 44 1014.0
20260508085030 55 227 5.0 8.0 0.00 0.00 0.00 45 1014.0
20260508084537 55 227 3.0 8.0 0.00 0.00 0.00 46 1014.0
20260508084034 55 227 3.0 10.0 0.00 0.00 0.00 47 1014.0
20260508083535 55 227 4.0 10.0 0.00 0.00 0.00 48 1014.0
20260508083038 55 227 5.0 10.0 0.00 0.00 0.00 48 1014.0
20260508082533 55 227 3.0 8.0 0.00 0.00 0.00 48 1014.1
20260508082033 56 227 3.0 7.0 0.00 0.00 0.00 48 1014.0
20260508081600 56 227 3.0 6.0 0.00 0.00 0.00 49 1013.9
20260508081035 56 227 3.0 6.0 0.00 0.00 0.00 49 1013.9
20260508080535 56 227 3.0 6.0 0.00 0.00 0.00 49 1014.0
20260508080041 55 227 3.0 6.0 0.00 0.00 0.00 50 1013.9
20260508075535 55 227 2.0 5.0 0.00 0.00 0.00 51 1013.8
20260508075036 56 227 2.0 4.0 0.00 0.00 0.00 51 1013.8
20260508074540 56 227 0.0 7.0 0.00 0.00 0.00 50 1013.7
20260508074034 57 227 2.0 7.0 0.00 0.00 0.00 49 1013.7
20260508073534 57 227 3.0 7.0 0.00 0.00 0.00 49 1013.7
20260508073048 57 227 5.0 7.0 0.00 0.00 0.00 50 1013.8
20260508072530 55 227 4.0 6.0 0.00 0.00 0.00 53 1013.7
20260508072034 54 227 1.0 4.0 0.00 0.00 0.00 57 1013.7
20260508071544 54 227 1.0 4.0 0.00 0.00 0.00 56 1013.7
20260508071033 54 227 0.0 4.0 0.00 0.00 0.00 56 1013.7
20260508070533 54 227 1.0 4.0 0.00 0.00 0.00 55 1013.7
20260508070046 54 227 1.0 4.0 0.00 0.00 0.00 56 1013.7
20260508065534 53 227 0.0 2.0 0.00 0.00 0.00 56 1013.6
20260508065033 53 0 0.0 5.0 0.00 0.00 0.00 57 1013.7
20260508064542 53 0 0.0 5.0 0.00 0.00 0.00 58 1013.7
20260508064035 52 227 1.0 4.0 0.00 0.00 0.00 58 1013.8
20260508063534 53 0 0.0 4.0 0.00 0.00 0.00 60 1013.7
20260508063052 51 227 1.0 4.0 0.00 0.00 0.00 61 1013.7
20260508062533 51 227 2.0 4.0 0.00 0.00 0.00 64 1013.5
20260508062033 51 227 1.0 4.0 0.00 0.00 0.00 67 1013.5
20260508061541 49 227 0.0 2.0 0.00 0.00 0.00 70 1013.5
20260508061034 49 0 0.0 3.0 0.00 0.00 0.00 71 1013.4
20260508060534 49 227 1.0 3.0 0.00 0.00 0.00 71 1013.5
20260508060043 49 0 1.0 3.0 0.00 0.00 0.00 72 1013.4
20260508055533 48 0 0.0 0.0 0.00 0.00 0.00 72 1013.5
20260508055037 49 0 0.0 0.0 0.00 0.00 0.00 72 1013.6
20260508054539 49 0 0.0 0.0 0.00 0.00 0.00 71 1013.5
20260508054032 49 0 0.0 0.0 0.00 0.00 0.00 71 1013.6
20260508053534 50 0 0.0 0.0 0.00 0.00 0.00 71 1013.5
20260508053044 50 0 0.0 0.0 0.00 0.00 0.00 70 1013.6
20260508052534 50 0 0.0 0.0 0.00 0.00 0.00 70 1013.5
20260508052033 50 0 0.0 0.0 0.00 0.00 0.00 70 1013.5
20260508051542 51 0 0.0 0.0 0.00 0.00 0.00 69 1013.5
20260508051036 51 0 0.0 0.0 0.00 0.00 0.00 69 1013.5
20260508050534 51 0 0.0 0.0 0.00 0.00 0.00 70 1013.3
20260508050043 51 0 0.0 0.0 0.00 0.00 0.00 70 1013.5
20260508045533 51 0 0.0 0.0 0.00 0.00 0.00 70 1013.5
20260508045033 51 0 0.0 0.0 0.00 0.00 0.00 69 1013.6
20260508044546 52 0 0.0 0.0 0.00 0.00 0.00 69 1013.5
20260508044034 52 0 0.0 0.0 0.00 0.00 0.00 69 1013.6
20260508043532 52 0 0.0 2.0 0.00 0.00 0.00 67 1013.7
20260508043046 53 0 0.0 2.0 0.00 0.00 0.00 65 1013.7
20260508042533 53 227 0.0 2.0 0.00 0.00 0.00 66 1013.7
20260508042034 54 0 0.0 1.0 0.00 0.00 0.00 67 1013.7
20260508041544 54 0 0.0 1.0 0.00 0.00 0.00 66 1013.7
20260508041034 54 0 0.0 1.0 0.00 0.00 0.00 66 1013.8
20260508040534 55 0 0.0 0.0 0.00 0.00 0.00 65 1013.7
20260508040051 55 0 0.0 0.0 0.00 0.00 0.00 65 1013.6
20260508035534 56 0 0.0 0.0 0.00 0.00 0.00 64 1013.6
20260508035036 56 0 0.0 0.0 0.00 0.00 0.00 63 1013.5
20260508034539 57 0 0.0 0.0 0.00 0.00 0.00 61 1013.5
20260508034034 58 0 0.0 4.0 0.00 0.00 0.00 60 1013.4
20260508033533 58 0 0.0 4.0 0.00 0.00 0.00 59 1013.4
20260508033038 59 227 1.0 3.0 0.00 0.00 0.00 57 1013.4
20260508032531 60 0 0.0 0.0 0.00 0.00 0.00 56 1013.5
20260508032035 61 0 0.0 0.0 0.00 0.00 0.00 54 1013.3
20260508031549 62 0 0.0 0.0 0.00 0.00 0.00 52 1013.2
20260508031034 63 0 0.0 0.0 0.00 0.00 0.00 52 1013.2
20260508030534 63 0 0.0 0.0 0.00 0.00 0.00 51 1013.2
20260508030045 64 0 0.0 0.0 0.00 0.00 0.00 50 1013.1
20260508025533 65 0 0.0 0.0 0.00 0.00 0.00 48 1013.0
20260508025034 66 0 0.0 0.0 0.00 0.00 0.00 48 1013.1
20260508024549 66 0 0.0 0.0 0.00 0.00 0.00 47 1013.1
20260508024031 66 0 0.0 1.0 0.00 0.00 0.00 45 1013.0